CZ-6A DEB, 54428

Orbit data source: Space-Track

CZ-6A DEB, 54428 is space debris in SSO originally from a launch on Fri, 11 Nov 2022 UTC launched from the Taiyaun Space Center, China (TSC). Debris objects in space refer to the collection of defunct objects orbiting the Earth. Examples of debris include non-operational satellites, rocket bodies, and fragments generated from explosions, collisions, or faulty payload assembly.

Loading next visibility...
Identifier
54428, 2022-151FC
Orbit
SSO
Country
Flag of CNCN / PRC
Related business
Manufacturer
SAST
Mission
Spacecraft
Bus & Motor
Unknown
Mass
Unknown
Launch date (UTC)
2022-11-11 (3 years ago)
Launch vehicle
Unknown
Launch site
Taiyaun Space Center, China (TSC)
Object type
Payload
Rocket body
Debris
Shape & HBR
Unknown shape, 0.2 m
Radar Cross Section
Medium (>0.1 m² and <1 m²)

Expand to show TLE details & history
Last TLE update: 12 hours ago

TLE from 12 hours ago
0 CZ-6A DEB
1 54428U 22151FC  26130.06899176  .00000069  00000-0  13156-3 0  9996
2 54428  99.1066   6.5809 0464922 185.7708 173.7944 13.26956756168816
Epoch: 2026-05-10T01:39Z
TLE epoch observation values (Epoch: 2026-05-10T01:39:20.888Z)
Latitude
0.00005°
Longitude
113.86649°
Altitude
1,509.615 km
Speed
6.944 km/s
True Right ascension
00h 26m 19s
True Declination
0° 00' 00"
Sunlit
Object was in daylight at epoch
Visualization orbit readout
Latitude
Unknown
Longitude
Unknown
Altitude
Unknown
Speed
Unknown
Apparent Right ascension
Unknown
Apparent Declination
Unknown
Sunlit
N/A
Visualization observer readout
Local Sidereal Time
21:25:00
Azimuth
Unknown
Elevation
Unknown
Doppler factor
Unknown
Orbital elements
Apogee altitude
1,505.816 km
Perigee altitude
805.3 km
Semi-major axis
7,533.695 km
Eccentricity
0.04649
Inclination
99.1066°
RAAN
6.5809°
Arg. of periapsis
185.7708°
True anomaly
174.33877°
Mean anomaly
173.7944°
Eccentric anomaly
174.06962°
Mean motion
3.31918 °/min
Orbital period
108.46 mins
BSTAR
0.00013156
Loading maneuver chart data...
Computing Atmospheric mass density...
Loading historical data...
Loading historical data...
Loading historical data...
Loading historical data...
Loading historical data...
Loading historical data...
Loading historical data...

Documentation

Showing up to 5 results
|